Hourly Data Report for November 29, 2016

All times are specified in Local Standard Time (LST). Add 1 hour to adjust for Daylight Saving Time where and when it is observed.

KITCHENER/WATERLOO
ONTARIO

43°27'39.000" N
80°22'43.000" W
321.60 m
6144239
71368
YKF

Download Data

Hourly Data (November 2016)
Hourly Data Report for November 29, 2016
Temp Definition
°C
Dew Point Temp Definition
°C
Rel Hum Definition
%
Wind Dir Definition
10's deg

Wind Spd Definition
km/h
Visibility Definition
km
Stn Press Definition
kPa
Hmdx Definition


Wind Chill Definition


Weather Definition


TIME
00:00 5.4 2.8 83 13 13 16.1 96.74     Rain
01:00 5.1 2.9 86 12 21 16.1 96.66     Rain
02:00 5.5 3.7 88 13 24 9.7 96.56     Rain,Fog
03:00 5.1 3.9 92 11 28 6.4 96.39     Rain,Fog
04:00 5.5 4.5 93 12 21 12.9 96.35     LegendNANA
05:00 6.3 5.3 93 15 28 16.1 96.34     LegendNANA
06:00 6.7 6.0 95 14 18 14.5 96.31     LegendNANA
07:00 8.8 7.7 93 18 17 16.1 96.38     Rain
08:00 9.8 8.1 89 18 22 16.1 96.45     LegendNANA
09:00 10.3 8.4 88 20 24 16.1 96.52     LegendNANA
10:00 10.6 8.6 87 19 21 16.1 96.59     LegendNANA
11:00 11.1 8.5 84 22 18 16.1 96.61     LegendNANA
12:00 12.3 8.3 76 22 24 16.1 96.61     LegendNANA
13:00 12.1 7.6 74 22 18 16.1 96.63     LegendNANA
14:00 12.7 7.5 70 25 17 16.1 96.64     LegendNANA
15:00 12.2 6.5 68 25 15 16.1 96.69     LegendNANA
16:00 11.3 6.5 72 22 15 16.1 96.78     LegendNANA
17:00 9.6 7.6 87 19 13 16.1 96.84     LegendNANA
18:00 8.9 7.5 91 19 13 16.1 96.94     LegendNANA
19:00 7.5 6.6 94 17 8 16.1 96.99     LegendNANA
20:00 7.2 6.0 92 19 9 16.1 97.05     LegendNANA
21:00 6.1 5.5 96 19 8 9.7 97.06     Fog
22:00 5.6 4.9 95 13 5 16.1 97.03     LegendNANA
23:00 4.1 3.7 97 16 9 4.8 97.06     Fog

Notes on Data Quality.

Legend

  • E = Estimated
  • M = Missing
  • NA = Not Available
Date modified: